This is the latest recevied weather packets stored in our database for station/object EB1GOD-1. If no packets are shown the sender has not sent any weather packets the latest 1 day(s).
| Time | Temp. | Humidity | Pressure | Rain* | Wind** | Luminosity | Snow |
|---|---|---|---|---|---|---|---|
| 1777793553 | 12.22° C | 93% | 1151.5 hPa | - | - | - | - |
| 1777792652 | 12.22° C | 95% | 1151.5 hPa | - | - | - | - |
| 1777791752 | 11.67° C | 94% | 1151.3 hPa | - | - | - | - |
| 1777790838 | 11.67° C | 94% | 1151.2 hPa | - | - | - | - |
| 1777789938 | 12.78° C | 90% | 1151.1 hPa | - | - | - | - |
| 1777789038 | 12.22° C | 90% | 1150.9 hPa | - | - | - | - |
| 1777788138 | 12.78° C | 88% | 1150.8 hPa | - | - | - | - |
| 1777787238 | 12.78° C | 88% | 1150.9 hPa | - | - | - | - |
| 1777786338 | 12.78° C | 88% | 1150.8 hPa | - | - | - | - |
| 1777785438 | 12.78° C | 88% | 1150.8 hPa | - | - | - | - |
| 1777784538 | 12.78° C | 89% | 1150.7 hPa | - | - | - | - |
| 1777783638 | 12.22° C | 88% | 1150.7 hPa | - | - | - | - |
| 1777782738 | 12.22° C | 89% | 1150.8 hPa | - | - | - | - |
| 1777781838 | 12.22° C | 88% | 1150.9 hPa | - | - | - | - |
| 1777780938 | 12.78° C | 88% | 1150.9 hPa | - | - | - | - |
| 1777780037 | 12.78° C | 88% | 1151 hPa | - | - | - | - |
| 1777779137 | 12.78° C | 86% | 1151.1 hPa | - | - | - | - |
| 1777778237 | 12.78° C | 87% | 1151.1 hPa | - | - | - | - |
| 1777777337 | 12.78° C | 86% | 1151.1 hPa | - | - | - | - |
| 1777776437 | 12.78° C | 87% | 1151.1 hPa | - | - | - | - |
| 1777775537 | 12.78° C | 85% | 1151.4 hPa | - | - | - | - |
| 1777774637 | 12.78° C | 87% | 1151.3 hPa | - | - | - | - |
| 1777773737 | 12.78° C | 85% | 1151.3 hPa | - | - | - | - |
| 1777772837 | 12.78° C | 86% | 1151.4 hPa | - | - | - | - |
| 1777771937 | 12.78° C | 87% | 1151.4 hPa | - | - | - | - |
* Rain since midnight (hover to see other rain measurements)
** Current wind speed in m/s (hover to see current wind gust speed)